SCP
0 0 0 0 0 0 0 0 0 0 0 0 0 0 0 0 0 0 0 0 0 0 0 0 0 0 0 0 0 0 0 0 0 0 0 0 0 0 0 0 0 0 0
0 0 0 0 0 0 0 0 0 0 0 0 0 0 0 0 0 0 0 0 0 0 0 0 0 0 0 0 0 0 0 0 0 0 0 0 0 0 0 0 0 0 0
0 0 0 0 0 0 0 0 0 0 0 0 0 0 0 0 0 0 0 0 0 0 0 0 0 0 0 0 0 0 0 0 0 0 0 0 0 0 0 0 0 0 0
0 0 0 0 0 0 0 0 0 0 0 0 0 0 0 0 0 0 0 0 0 0 0 0 0 0 0 0 0 0 0 0 0 0 0 0 0 0 0 0 0 0 0
0 0 0 0 0 0 0 0 0 0 0 0 0 0 0 0 0 0 0 0 0 0 0 0 0 0 0 0 0 0 0 0 0 0 0 0 0 0 0 0 0 0 0
0 0 0 0 0 0 0 0 0 0 0 0 0 0 0 0 0 0 0 0 0 0 0 0 0 0 0 0 0 0 0 0 0 0 0 0 0 0 0 0 0 0 0
0 0 0 0 0 0 0 0 0 0 0 0 0 0 0 0 0 0 0 0 0 0 0 0 0 0 0 0 0 0 0 0 0 0 0 0 0 0 0 0 0 0 0
0 0 1 1 0 0 0 0 0 0 0 0 0 0 0 0 0 0 0 0 0 0 0 0 0 0 0 0 0 0 0 0 0 0 0 0 0 0 0 0 0 0 0
0 0 1 0 0 0 0 0 0 0 0 0 0 0 0 0 0 0 0 0 0 0 0 0 0 0 0 0 0 0 0 0 0 0 0 0 0 0 0 0 0 0 0
0 0 0 1 0 0 0 0 0 0 0 0 0 0 0 0 0 0 0 0 0 0 0 0 0 0 0 0 0 0 0 0 0 0 0 0 0 0 0 0 0 0 0
1 1 1 1 1 1 0 0 0 0 0 0 0 0 0 0 0 0 0 0 0 0 0 0 0 0 0 0 0 0 0 0 0 0 0 0 0 0 0 0 0 0 0
1 1 1 1 1 1 1 1 0 0 0 0 0 0 0 0 0 0 0 0 0 0 0 0 0 0 0 0 0 0 0 0 0 0 0 0 0 0 0 0 0 0 0
1 1 1 1 1 1 1 1 1 0 0 0 0 0 0 0 0 0 0 0 0 0 0 0 0 0 0 0 0 0 0 0 0 0 0 0 0 0 0 0 0 0 0
1 1 1 1 1 1 1 1 1 1 0 0 0 0 0 0 0 0 0 0 0 0 0 0 0 0 0 0 0 0 0 0 0 0 0 0 0 0 0 0 0 0 0
1 1 1 1 1 1 1 1 1 1 1 0 0 0 0 0 0 0 0 0 0 0 0 0 0 0 0 0 0 0 0 0 0 0 0 0 0 0 0 0 0 0 0
1 1 1 1 1 1 1 1 1 1 1 0 0 0 0 0 0 0 0 0 0 0 0 0 0 0 0 0 0 0 0 0 0 0 0 0 0 0 0 0 0 0 0
1 1 1 1 1 1 1 1 1 1 1 1 0 0 0 0 0 0 0 0 0 0 0 0 0 0 0 0 0 0 0 0 0 0 0 0 0 0 0 0 0 0 0
1 1 1 1 1 1 1 1 1 1 1 1 0 0 0 0 0 0 0 0 0 0 0 0 0 0 0 0 0 0 0 0 0 0 0 0 0 0 0 0 0 0 0
1 1 1 1 1 1 1 1 1 1 1 1 0 0 0 0 0 0 0 0 0 0 0 0 0 0 0 0 0 0 0 0 0 0 0 0 0 0 0 0 0 0 0
1 1 1 1 1 1 1 1 1 1 1 1 0 0 0 0 0 0 0 0 0 0 0 0 0 0 0 0 0 0 0 0 0 0 0 0 0 0 0 0 0 0 0
1 1 0 1 1 1 1 1 1 1 1 0 0 0 0 0 0 0 0 0 0 0 0 0 0 0 0 0 0 0 0 0 0 0 0 0 0 0 0 0 0 0 0
0 0 0 0 1 1 1 1 1 1 1 0 0 0 0 0 0 0 0 0 0 0 0 0 0 0 0 0 0 0 0 0 0 0 0 0 0 0 0 0 0 0 0
0 0 0 0 1 1 1 1 1 1 1 0 0 0 0 0 0 0 0 0 0 0 0 0 0 0 0 0 0 0 0 0 0 0 0 0 0 0 0 0 0 0 0
0 0 0 1 1 1 1 1 1 1 1 0 0 0 0 0 0 0 0 0 0 0 0 0 0 0 0 0 0 0 0 0 0 0 0 0 0 0 0 0 0 0 0
0 0 0 1 1 1 1 1 1 0 0 0 0 0 0 0 0 0 0 0 0 0 0 0 0 0 0 0 0 0 0 0 0 0 0 0 0 0 0 0 0 0 0
0 0 0 0 1 1 1 1 0 0 0 0 0 0 0 0 0 0 0 0 0 0 0 0 0 0 0 0 0 0 0 0 0 0 0 0 0 0 0 0 0 0 0
Wind_Speed
14 17 18 15 14 14 14 14 14 15 15 15 15 14 13 12 11 11 11 11 11 11 11 11 11 11 11 11 12 12 12 12 13 13 13 14 13 13 13 13 12 14 15
18 19 19 16 15 14 14 14 14 15 15 15 14 14 13 12 12 11 11 11 11 11 12 12 12 12 12 12 12 12 12 12 12 13 13 14 13 12 10 9 11 13 14
19 20 19 16 16 15 15 14 15 15 15 15 14 13 13 12 12 11 11 11 11 12 12 12 12 12 12 12 12 11 11 11 11 10 10 11 13 11 11 13 15 14 13
20 19 18 18 16 16 15 15 15 15 15 14 14 13 13 12 12 12 11 11 12 12 12 12 12 12 12 11 11 11 11 11 9 7 6 9 11 12 12 13 13 13 13
18 18 18 19 17 16 15 15 15 15 14 14 14 13 12 12 12 12 12 12 12 12 12 12 12 11 10 10 10 10 10 9 5 4 8 9 10 11 11 12 12 12 12
18 18 20 19 17 17 16 15 15 14 14 14 13 12 12 12 12 12 12 12 12 11 11 11 11 10 9 9 9 9 9 7 7 7 7 8 10 11 11 11 11 11 11
18 17 20 19 18 17 16 15 15 14 14 13 13 12 12 12 11 11 11 11 11 11 10 10 9 9 8 7 7 7 7 4 2 7 6 8 10 10 10 10 10 10 11
17 18 19 18 18 17 16 15 15 14 14 13 13 12 12 11 11 11 11 11 11 11 10 9 8 7 6 6 6 6 5 5 5 6 6 9 11 9 9 9 9 9 10
16 16 17 17 17 17 16 15 15 14 13 13 12 12 12 11 11 11 10 10 10 10 8 7 7 6 6 6 6 6 4 3 2 5 7 8 10 8 8 8 8 9 9
15 16 16 16 15 15 15 15 14 14 13 13 12 12 12 11 11 10 10 10 9 9 8 7 6 6 6 6 6 6 5 6 3 6 5 9 9 8 8 8 7 8 8
15 14 15 15 14 13 14 15 14 13 12 12 11 12 11 9 10 9 10 10 9 8 7 7 6 5 4 7 7 6 6 3 4 3 5 11 8 7 7 7 7 7 7
16 15 13 14 13 12 11 12 10 10 10 9 8 9 7 6 5 7 11 8 8 7 7 6 5 5 5 4 7 7 3 3 3 3 7 9 6 6 6 6 6 6 6
16 15 13 13 12 12 9 9 7 6 7 7 9 8 6 6 5 5 5 7 6 7 5 6 5 2 1 2 1 2 1 2 2 3 8 8 6 6 6 6 5 5 6
16 15 13 13 11 10 9 8 7 7 6 6 8 8 6 4 4 4 3 4 4 3 3 2 2 2 1 2 1 1 2 1 1 3 7 8 6 6 6 6 6 5 6
15 15 13 13 12 10 8 7 8 8 7 7 7 7 6 5 4 4 3 2 3 3 4 3 2 2 2 3 2 2 1 1 2 2 5 7 6 5 6 6 6 6 6
15 15 14 13 12 11 9 7 7 7 6 7 7 7 7 5 4 4 4 3 3 2 2 2 3 3 2 1 2 2 2 2 2 2 3 7 7 6 5 6 6 6 6
14 14 15 14 12 11 10 10 7 7 8 7 6 7 6 5 5 4 4 4 3 2 3 2 3 2 3 3 2 2 2 2 2 2 2 3 6 8 7 6 6 7 7
12 13 13 12 13 12 10 9 7 7 8 6 6 6 7 6 5 4 4 3 3 3 3 3 3 3 3 2 2 2 3 3 3 3 3 4 3 4 8 8 6 6 7
11 12 13 12 13 12 11 8 7 6 6 6 6 6 7 7 6 5 3 2 4 3 3 3 3 2 2 2 3 3 3 3 3 3 2 3 4 3 4 8 7 6 7
10 11 13 13 13 12 9 8 6 7 6 6 6 6 7 6 6 5 4 4 4 3 3 2 3 2 2 2 3 3 2 2 2 2 3 3 3 4 4 4 6 7 7
11 11 13 13 13 11 9 9 9 8 7 6 6 7 7 7 6 5 4 4 4 4 4 5 4 5 3 2 3 4 4 4 2 2 2 2 3 3 3 3 3 3 5
11 12 14 15 14 13 10 8 8 8 7 6 6 6 7 7 6 6 5 5 5 4 4 4 4 3 3 3 3 3 4 5 4 3 3 3 3 3 3 4 3 3 2
12 13 12 15 15 14 13 9 8 7 6 6 7 6 7 7 7 5 6 5 4 5 4 5 5 5 4 4 3 3 3 2 4 4 3 2 2 2 3 3 4 3 4
11 11 12 13 14 14 13 11 13 10 9 8 7 6 7 7 7 7 6 6 5 4 4 6 5 4 4 4 4 2 3 3 2 3 5 4 4 3 2 3 3 4 4
11 10 11 12 13 13 13 13 12 10 8 7 7 8 7 7 7 7 7 6 5 4 4 4 4 5 4 4 3 4 3 3 5 4 2 3 4 4 3 4 3 3 3
11 11 11 12 13 13 13 13 12 11 10 10 9 8 7 6 6 8 7 6 6 5 5 5 5 6 4 3 3 3 4 4 4 4 3 4 4 3 3 2 4 4 4
Wind_Direction
158 145 146 151 147 141 137 134 134 135 135 134 133 133 132 130 125 119 114 110 108 106 104 103 103 103 103 102 102 103 104 106 107 107 107 105 106 109 112 120 122 106 107
150 143 148 152 149 144 139 135 133 133 134 134 133 133 132 129 125 120 117 113 110 107 105 103 102 101 100 100 100 101 103 108 111 114 117 113 107 108 107 97 85 103 113
148 144 152 154 150 146 142 139 137 135 135 134 134 134 133 130 127 123 118 113 110 108 106 104 103 101 100 101 101 102 103 107 112 124 145 125 112 107 102 99 102 112 111
148 148 153 151 152 148 144 142 141 139 138 136 136 135 133 130 127 122 117 113 110 108 106 105 103 102 101 101 103 104 104 105 117 166 145 114 115 109 109 110 112 113 112
148 148 145 153 152 149 146 144 143 142 140 139 138 136 132 129 125 121 116 113 110 108 107 105 104 103 103 103 104 106 108 113 146 185 98 103 106 114 115 114 116 116 115
150 151 145 156 152 150 148 146 144 143 141 139 138 134 131 127 124 121 119 115 111 108 106 105 104 102 102 103 105 109 115 142 197 106 109 114 112 118 118 117 117 117 117
155 151 147 156 153 152 151 149 147 145 142 138 136 132 128 124 120 119 117 113 111 109 107 105 103 100 98 103 107 114 123 185 141 105 114 104 104 118 121 120 117 119 119
156 152 146 155 155 154 153 151 149 147 143 139 135 132 128 125 121 119 117 114 111 109 106 104 101 97 92 96 105 114 138 225 126 113 109 102 106 121 122 122 123 123 123
158 151 151 157 157 156 155 153 151 148 144 141 137 133 129 127 125 122 119 118 114 110 107 104 100 92 89 97 108 115 129 287 144 117 116 107 118 127 127 128 128 129 129
162 157 157 160 158 160 158 156 154 150 146 143 141 139 135 132 131 130 135 120 118 115 112 106 98 91 89 99 111 122 145 226 143 128 116 111 127 135 135 135 137 136 136
169 164 165 159 161 164 159 153 157 153 148 150 149 146 159 156 143 153 118 122 123 120 116 108 101 100 118 123 121 138 190 204 129 106 99 108 137 145 145 145 145 145 145
174 172 168 163 162 165 158 155 163 161 156 168 154 160 163 136 137 126 120 129 126 126 127 117 117 159 214 146 143 183 196 169 138 131 105 120 144 152 152 150 152 156 154
175 175 170 165 165 167 159 162 163 157 155 162 157 161 147 150 147 144 148 148 149 158 155 142 178 189 146 85 143 179 124 162 141 128 117 135 151 157 158 161 163 166 165
179 177 174 167 169 172 165 162 163 159 162 162 157 169 157 159 156 148 156 152 162 154 141 160 164 140 127 137 160 167 161 179 124 107 118 142 155 160 164 170 175 174 174
181 179 174 170 170 173 167 170 168 165 166 158 158 166 166 164 162 150 150 160 171 152 163 175 172 151 181 178 178 166 166 140 121 139 125 144 155 165 172 177 182 186 186
183 177 172 170 173 173 171 173 168 166 163 161 164 163 174 168 158 161 167 172 169 172 151 180 160 173 181 157 168 151 186 162 137 198 154 153 166 176 183 188 191 192 193
182 178 175 173 175 176 175 176 173 169 165 167 162 163 172 171 163 174 169 177 163 156 160 183 171 175 173 170 168 166 172 182 158 172 178 173 169 178 187 192 200 202 201
179 177 176 176 175 177 176 177 172 174 165 164 162 167 174 170 174 186 179 176 161 179 179 175 196 184 175 176 165 177 160 161 174 186 183 186 192 180 177 185 198 205 209
184 178 175 178 176 177 174 174 172 166 165 165 168 173 170 175 180 193 188 159 184 187 188 202 169 204 177 178 172 170 179 173 181 188 182 187 181 198 178 165 183 196 208
184 180 178 181 177 176 172 170 166 166 168 173 174 171 170 176 181 189 181 180 201 190 187 186 158 188 197 201 197 157 186 174 194 164 199 183 183 192 188 168 178 180 191
184 181 180 181 178 177 175 175 172 173 172 172 175 171 177 180 177 189 186 180 206 195 193 185 188 179 195 190 196 183 179 184 179 182 209 207 173 179 177 176 202 184 174
185 184 184 184 181 181 180 176 175 170 171 169 172 170 181 183 182 184 190 193 194 188 192 197 211 219 183 197 234 208 190 175 194 184 193 205 203 189 188 189 176 198 240
187 187 187 184 180 182 176 169 164 160 165 168 173 175 182 184 187 187 190 203 193 209 190 200 203 217 207 191 237 261 243 204 161 166 189 198 206 203 210 182 193 187 211
189 188 185 181 180 180 175 177 174 176 175 177 177 174 177 184 187 188 193 196 203 210 188 205 197 210 219 205 185 249 305 354 274 173 182 177 191 211 220 228 192 183 197
184 182 180 176 178 177 180 182 182 180 176 170 173 172 182 182 192 194 193 194 197 205 200 214 188 221 219 232 212 202 207 217 253 263 206 182 192 191 190 210 218 204 189
180 178 175 176 179 177 180 183 185 180 173 171 177 176 185 184 191 194 196 197 201 199 193 203 207 209 234 242 252 235 229 232 232 242 237 220 211 188 192 210 221 208 210